Regional Weather Roundup
Issued by NWS

Home | Current Version | Previous Version | Graphics & Text | Print | Product List | Glossary Off
Versions: 1 2 3 4 5 6 7 8 9 10 11 12 13 14 15 16 17 18 19 20 21 22 23 24 25 26 27 28 29 30 31 32 33 34 35 36 37 38 39 40 41 42 43 44 45 46 47 48 49 50

000
ASUS43 KIND 242309
RWRIN

WEATHER ROUNDUP FOR INDIANA
NATIONAL WEATHER SERVICE INDIANAPOLIS IN
700 PM EDT MON JUL 24 2017

NOTE: "FAIR" INDICATES FEW OR NO CLOUDS BELOW 12,000 FEET WITH NO
SIGNIFICANT WEATHER AND/OR OBSTRUCTIONS TO VISIBILITY.

* - STATION DOES NOT REPORT WEATHER SUCH AS PRECIPITATION OR FOG.

+ - STATION NOT QUALITY CONTROLLED BY THE NATIONAL WEATHER SERVICE.
    USE DATA WITH CAUTION...ESPECIALLY DEWPOINT AND RELATIVE
    HUMIDITY OBSERVATIONS.

INZ001>003-010>013-019-020-250000-
NORTHWEST INDIANA

CITY           SKY/WX    TMP DP  RH WIND       PRES   REMARKS
GARY /AIRPORT/ PTSUNNY   72  59  64 N10       30.07S
KNOX *+        FAIR      72  59  64 N7        30.03S
LA PORTE +     FAIR      72  62  70 N10       30.05S
MICHIGAN CITY+ FAIR      70  61  73 N8        30.07R
MONTICELLO +   FAIR      76  60  58 NE7       30.02S
RENSSELAER +   FAIR      73  59  60 N8        30.04S
VALPARAISO     FAIR      74  62  66 N7        30.05S

$$

LMZ046-743>745-250000-
SOUTHERN LAKE MICHIGAN

STATION/POSITION TIME  TEMP    WIND        PRES    WAVE
                       AIR SEA DIR/SP/G            HT
                 (UTC) (F)     (DEG/KT/KT) (MB)    (FT)
MICHIGAN CITY    2240   69     360/ 11/ 13   N/A
5NW MICH CITY    2300   69 74   20/ 10/ 14   N/A     4

$$

INZ004-005-014>016-021>024-250000-
NORTH CENTRAL INDIANA

CITY           SKY/WX    TMP DP  RH WIND       PRES   REMARKS
GOSHEN         FAIR      74  55  51 E9        30.05R
LOGANSPORT +   PTSUNNY   73  61  64 N7        30.03S
PERU/GRISSOM   FAIR      77  63  61 NE9       30.01S
ROCHESTER +    PTSUNNY   73  61  64 NE6       30.04R
SOUTH BEND     FAIR      74  58  57 NE10      30.05R
WARSAW +       FAIR      72  57  60 NE8       30.04S

$$

INZ006>009-017-018-025>027-250000-
NORTHEAST INDIANA

CITY           SKY/WX    TMP DP  RH WIND       PRES   REMARKS
AUBURN +       FAIR      72  55  56 N9        30.05S
FORT WAYNE     PTSUNNY   76  59  55 NE10      30.04R
HUNTINGTON +   PTSUNNY   75  59  58 NE8       30.03S
KENDALLVILLE + CLOUDY    72  59  63 N7        30.05S

$$

INZ028-029-035-036-043>045-051>053-250000-
WEST CENTRAL INDIANA

CITY           SKY/WX    TMP DP  RH WIND       PRES   REMARKS
GREENCASTLE +  FAIR      79  63  57 N7        30.00F
LAFAYETTE      FAIR      76  63  64 N8        30.01S
TERRE HAUTE    FAIR      81  66  60 N7        29.99R

$$

INZ030>032-037>040-046>048-054>057-064-065-250000-
CENTRAL INDIANA

CITY           SKY/WX    TMP DP  RH WIND       PRES   REMARKS
CP ATTERBURY + FAIR      79  64  61 NE5       29.98S
COLUMBUS       MOSUNNY   79  64  61 NE10      29.98R
FRANKFORT +    FAIR      78  65  65 N9        30.04R
GREENWOOD *+   FAIR     N/A N/A N/A NE8       30.00R
INDIANAPOLIS   FAIR      80  63  55 N13       29.98S
-EAGLE CREEK   FAIR      80  62  54 N10       29.99R
KOKOMO +       FAIR      76  62  62 N7        30.03S
MARION +       FAIR      75  59  57 N6        30.03S
MT COMFORT *+  FAIR      79  64  61 N9        30.01R
SHELBYVILLE    FAIR      81  64  56 N7        29.98R
ZIONSVILLE +   PTSUNNY   77  65  66 NE10      30.02R

$$

INZ033-034-041-042-049-050-058-059-250000-
EAST CENTRAL INDIANA

CITY           SKY/WX    TMP DP  RH WIND       PRES   REMARKS
MUNCIE         FAIR      77  61  57 NE9       30.02R
RICHMOND +     FAIR      73  61  64 N9        30.02R

$$

INZ060-061-067>069-081>083-085>088-250000-
SOUTHWEST INDIANA

CITY           SKY/WX    TMP DP  RH WIND       PRES   REMARKS
EVANSVILLE     FAIR      88  67  49 N9        29.93S
HUNTINGBURG *+ FAIR      84  72  67 N9        29.95R

$$

INZ062-063-066-070>080-084-089>092-250000-
SOUTH CENTRAL AND SOUTHEAST INDIANA

CITY           SKY/WX    TMP DP  RH WIND       PRES   REMARKS
BEDFORD +      FAIR      82  64  54 NE5       29.96R
BLOOMINGTON    FAIR      82  65  56 N9        29.98S
MADISON *+     FAIR      82  63  51 N3        29.99R
NORTH VERNON + FAIR      77  66  69 N7        29.99R
SEYMOUR +      FAIR     N/A N/A N/A NE10      29.97R

$$





USA.gov is the U.S. government's official web portal to all federal, state and local government web resources and services.